Vorticity
7 10 9 8 13 15 12 9 9 10 8 8 8 8 9 12 13 12 11 10 8 7 5 4 3 3 4 4 5 7 9 11 11 9 8 6 6 8 10 9 8 6 4 3 4 5 5 4 4 3 3 4 4 5 6 5 4 4 4 5 5 5 4 4 3 3 2 2 2 2 3 3 4 4 4 3 5 6 5 3 3 3 4 5 5
8 10 9 8 10 12 11 9 9 10 9 10 11 12 13 14 12 11 10 8 7 5 4 3 3 4 4 4 7 10 11 11 9 8 7 6 7 9 10 9 8 6 4 3 4 5 5 4 4 4 3 4 5 5 5 4 4 4 4 4 4 4 3 3 3 3 2 1 1 1 2 3 3 5 5 4 4 5 6 5 4 4 5 5 4
8 9 9 9 11 11 10 11 12 13 14 14 14 15 14 12 11 9 8 6 4 3 3 3 4 4 4 6 8 10 10 10 9 7 7 6 7 9 9 8 7 6 4 3 4 4 4 4 4 4 4 5 5 4 4 3 3 3 3 3 3 3 3 3 3 2 1 0 0 1 3 3 4 5 5 6 5 5 9 8 5 5 5 4 4
8 9 11 11 12 12 11 12 12 12 14 14 13 13 12 10 9 7 6 4 3 3 3 3 4 5 6 8 9 9 8 8 8 7 7 7 7 9 9 9 7 5 4 2 3 4 4 4 4 4 4 4 4 3 2 2 2 2 2 2 2 3 3 3 2 1 0 1 2 3 4 5 5 5 5 6 6 6 11 10 6 6 5 5 6
9 11 11 11 11 11 10 9 9 10 11 10 10 9 8 7 6 5 4 3 3 3 4 3 4 6 7 7 8 10 9 7 8 7 6 7 7 8 9 8 7 5 4 3 3 3 4 4 4 4 4 3 3 2 1 2 2 2 3 3 3 3 3 2 1 1 2 3 5 6 6 6 5 6 6 7 7 8 12 9 6 7 7 6 7
10 11 10 9 9 9 8 7 8 8 8 7 7 6 6 5 4 4 4 3 4 3 3 4 4 5 7 8 8 8 9 8 8 7 6 7 7 8 9 8 7 6 4 3 3 3 3 4 4 4 3 3 3 3 3 3 3 3 4 4 3 3 2 1 1 2 4 5 6 6 6 5 5 6 7 7 8 10 11 8 8 9 7 7 8
11 9 8 8 8 7 7 7 7 7 6 6 6 6 5 5 4 4 4 4 5 3 3 4 5 5 6 8 9 8 9 8 8 8 7 6 8 8 9 8 7 6 5 3 3 2 2 3 3 3 3 3 4 4 3 4 4 5 5 4 3 2 1 1 2 3 4 5 5 5 5 5 6 7 8 9 10 11 9 8 9 9 7 7 8
10 7 6 7 6 6 6 6 6 6 6 6 6 6 5 5 4 4 4 4 5 3 2 4 5 6 7 8 10 9 9 9 8 8 7 5 7 8 8 9 8 7 6 4 3 2 2 3 3 3 3 4 4 4 4 4 5 5 5 4 2 1 2 2 3 4 4 4 5 6 6 6 7 8 10 11 11 9 9 9 9 8 7 7 7
8 7 6 6 6 6 6 6 6 6 5 6 6 5 6 5 4 4 4 4 5 4 3 4 4 5 6 8 10 9 9 10 8 8 9 7 6 7 8 9 8 7 6 6 4 3 3 3 3 3 4 4 5 5 4 5 5 4 3 2 1 2 3 3 4 5 3 3 4 6 7 7 9 10 11 11 9 9 9 9 9 8 7 7 7
7 7 6 5 5 5 5 5 6 6 5 6 5 6 7 6 5 6 5 4 4 4 4 4 4 4 5 9 10 9 9 10 8 8 8 7 6 6 8 8 8 8 7 6 5 5 4 4 4 4 4 5 6 6 5 5 4 4 3 2 3 4 4 4 5 5 2 3 5 7 8 7 8 10 10 9 8 9 8 8 9 8 7 7 7
7 6 5 5 5 4 5 6 5 6 7 7 5 5 6 5 6 7 6 5 6 6 5 5 6 6 6 11 12 8 8 8 8 8 7 8 7 6 7 8 9 8 7 7 6 6 6 6 5 4 3 4 5 6 6 6 5 5 5 5 5 6 4 3 5 4 2 5 7 8 8 7 8 9 9 8 8 8 8 8 8 7 6 6 6
7 6 6 5 5 5 5 5 5 5 6 6 5 5 6 5 5 7 6 6 6 6 6 6 7 8 7 10 11 9 8 7 7 7 7 7 7 6 6 7 7 8 7 8 7 6 6 6 5 5 4 4 4 6 7 7 7 7 7 6 6 5 3 4 6 4 4 7 9 8 8 7 7 9 9 7 8 8 7 8 7 6 5 5 7
7 6 7 5 5 5 4 5 6 5 6 7 4 4 6 5 4 5 5 6 6 5 6 7 6 8 8 9 10 9 8 8 7 7 7 8 8 7 5 5 5 6 8 9 7 6 7 6 6 6 5 4 5 7 8 9 8 7 7 6 5 4 3 5 6 5 6 8 8 7 7 7 7 9 9 7 8 8 6 7 7 6 6 6 7
6 6 6 6 5 5 5 6 6 5 6 7 5 4 5 5 4 5 5 5 6 5 5 6 6 8 8 8 8 8 7 6 5 6 6 6 8 8 7 5 5 6 7 7 7 6 7 7 6 6 6 7 7 8 8 9 9 8 7 5 4 4 4 6 7 6 8 7 6 6 6 6 6 9 10 8 9 9 7 8 7 7 8 7 8
5 5 5 6 7 7 7 6 6 5 5 6 6 5 5 6 6 5 5 5 5 5 4 5 7 9 9 8 7 7 7 6 6 7 7 6 5 8 8 5 6 7 6 5 5 6 8 7 7 8 10 10 7 7 7 8 10 9 6 6 6 6 6 6 7 7 8 6 4 5 6 6 6 9 12 11 11 9 8 7 6 8 9 7 8
5 4 5 6 7 8 8 7 7 7 6 6 7 6 6 6 6 6 6 6 6 5 5 6 6 8 10 9 7 7 7 6 7 5 8 10 5 6 8 5 6 8 5 5 5 5 7 6 7 10 11 11 8 8 7 6 10 10 8 8 8 8 7 6 7 8 7 4 3 3 5 7 7 11 14 13 11 10 9 7 6 9 10 7 7
5 4 5 5 6 8 7 7 8 8 8 7 8 7 6 7 7 8 7 8 8 7 8 7 7 8 8 9 8 7 6 6 8 6 7 11 7 6 10 6 7 8 7 7 5 5 6 5 7 8 9 9 9 11 10 7 9 9 9 10 9 7 7 7 8 8 5 3 3 3 5 8 10 13 15 13 11 11 10 7 7 10 10 7 6
7 6 6 5 6 8 6 6 7 7 7 7 8 7 6 7 7 8 8 8 8 8 9 9 8 9 8 9 8 7 8 7 7 7 7 9 8 8 10 7 5 7 7 6 5 6 5 5 8 8 8 9 9 10 11 10 11 10 11 11 9 7 7 9 9 6 4 3 3 5 7 10 12 14 13 10 9 9 9 9 9 10 10 8 6
8 7 8 6 6 8 7 7 7 6 6 6 7 8 6 6 5 5 7 7 8 7 9 9 8 8 8 9 6 4 7 8 7 8 7 7 8 7 9 9 6 5 7 8 6 5 4 6 9 7 7 9 9 11 10 10 11 11 13 11 8 8 8 9 8 5 3 3 5 8 9 12 13 12 9 6 6 6 7 8 8 9 10 9 7
9 8 7 7 7 8 7 8 8 6 7 6 7 7 7 7 5 4 5 5 6 6 7 9 8 8 8 9 7 5 6 7 7 8 7 7 8 7 6 8 7 4 7 8 3 2 6 8 9 8 8 8 8 9 10 11 11 10 11 10 8 9 8 8 6 4 3 4 8 11 11 13 12 8 5 3 4 5 4 5 5 7 8 9 9
10 9 9 9 8 9 8 8 9 8 8 9 9 9 8 8 7 7 7 6 6 5 7 8 8 9 8 6 6 6 6 7 7 7 8 8 7 7 6 6 8 4 3 7 3 2 6 7 8 10 11 9 7 8 9 9 11 9 9 9 8 8 6 6 5 3 4 8 12 12 12 13 10 5 3 3 4 5 4 3 4 5 6 7 8
8 8 9 9 9 10 9 9 10 9 9 10 10 10 9 8 9 10 9 7 7 7 7 7 8 9 8 7 6 6 5 5 7 6 7 8 5 6 7 4 7 6 3 6 8 6 5 6 8 9 11 10 9 11 9 7 9 10 9 8 8 6 5 4 3 4 6 10 13 12 11 11 6 3 3 4 5 6 5 3 4 5 6 6 6
6 6 6 7 7 7 8 7 8 8 8 8 9 11 10 8 10 11 9 9 9 8 8 8 9 9 8 9 7 6 6 5 8 6 4 8 7 7 9 5 5 8 5 5 8 7 5 7 9 8 8 11 11 10 8 9 11 10 9 8 7 4 3 3 3 5 8 11 13 12 10 7 4 3 4 4 5 5 5 4 5 6 7 7 6
5 5 4 5 5 5 6 5 6 6 5 6 8 10 10 9 9 9 9 10 9 8 8 8 10 11 10 11 9 9 10 7 9 9 6 9 9 9 11 9 6 8 7 6 6 6 6 8 9 7 7 10 9 6 5 9 10 8 7 6 4 3 2 3 5 6 8 12 13 11 8 6 4 4 5 5 5 5 5 6 6 7 8 9 9
6 7 6 6 5 5 5 6 6 6 6 7 7 7 9 9 7 9 9 8 8 9 10 9 9 10 9 11 11 12 12 9 10 12 9 7 8 9 10 11 11 9 8 7 7 7 7 8 8 6 9 10 7 5 6 8 9 6 6 5 5 5 4 4 5 7 10 13 13 9 6 5 4 5 6 5 5 7 7 8 8 9 9 10 11
7 7 8 7 7 5 6 7 7 6 6 6 6 6 7 6 5 8 8 7 8 8 8 8 8 8 8 9 9 9 11 10 8 9 8 6 6 9 9 8 11 10 9 7 7 7 6 7 7 4 6 8 5 5 7 9 9 7 5 4 3 4 6 6 7 9 13 14 12 8 5 4 4 5 6 5 6 9 9 10 10 10 10 10 12
8 8 8 9 8 7 7 8 7 7 7 6 8 8 7 6 6 6 5 7 7 6 7 8 7 7 7 8 7 6 8 8 7 8 10 9 7 9 10 9 8 8 8 8 7 7 6 8 9 6 7 7 5 7 8 8 9 7 5 5 2 2 4 6 7 10 15 15 10 8 5 4 4 5 4 4 6 9 9 10 11 11 10 10 11
9 8 9 9 9 9 9 8 8 8 7 7 9 9 8 7 7 6 5 6 6 5 6 6 6 6 4 5 6 5 5 5 4 6 8 7 6 7 8 7 7 6 7 7 6 7 9 9 9 9 9 8 7 9 8 8 9 7 6 6 4 4 3 3 6 10 15 15 10 8 6 5 5 5 4 4 6 7 8 11 12 10 10 10 10
7 7 8 8 8 9 10 9 9 9 8 8 8 8 8 8 7 8 7 7 7 8 8 7 7 7 5 5 5 5 5 4 4 4 4 5 7 8 5 4 6 6 6 6 5 5 6 6 7 8 7 6 8 8 8 9 9 7 7 5 4 5 3 2 5 11 16 15 10 8 7 6 5 4 4 4 5 6 8 10 11 9 9 10 10
6 7 7 7 7 7 8 10 10 9 8 9 9 8 8 7 7 8 8 8 8 8 9 9 8 8 7 7 7 6 6 6 7 8 7 8 10 8 6 6 7 7 7 6 5 6 6 6 8 9 6 6 7 7 9 11 9 9 8 5 4 3 2 2 4 12 17 13 9 8 8 7 5 4 4 4 5 4 6 10 11 9 8 8 9
6 7 6 7 7 6 7 9 10 10 9 9 8 8 8 8 8 8 8 9 9 8 8 8 9 10 9 9 9 9 9 8 8 8 8 9 10 10 10 10 8 9 9 9 9 10 10 9 9 9 9 8 7 7 11 12 11 11 8 5 4 2 1 2 5 13 17 12 8 9 8 7 5 4 3 4 5 4 4 8 10 9 8 7 7
6 5 5 6 5 6 7 8 8 9 9 8 7 7 7 7 8 8 7 7 8 8 8 8 8 10 10 9 10 10 10 10 10 9 10 10 10 11 12 11 10 9 9 9 10 13 13 11 9 12 13 11 10 11 12 12 12 11 6 3 4 2 0 3 7 13 16 12 8 8 8 7 5 3 3 3 4 3 3 6 8 9 8 7 6
6 3 4 6 5 5 6 6 8 9 8 8 8 7 7 7 7 8 8 7 8 9 8 8 8 8 8 9 10 11 10 10 9 8 8 8 9 10 11 12 12 11 9 9 11 13 14 12 9 13 15 12 11 12 11 12 11 8 6 4 2 1 1 6 10 14 17 12 8 9 8 6 5 3 3 4 4 3 3 4 6 8 7 6 6
5 4 4 6 5 5 5 5 6 7 7 8 8 8 7 6 6 7 7 8 8 9 9 10 11 10 9 9 9 10 9 9 8 8 8 7 7 8 8 10 11 10 9 9 9 10 11 12 10 11 13 11 12 12 9 9 8 5 5 3 2 3 5 9 12 15 15 11 8 9 8 6 5 4 2 3 4 2 3 4 5 7 7 6 6
5 6 5 5 4 4 5 5 5 5 6 7 8 8 7 6 6 6 7 7 7 8 8 9 11 10 10 10 11 11 10 10 9 9 8 8 9 10 7 7 8 9 9 9 8 9 10 12 10 9 9 8 8 8 6 7 6 4 4 3 3 5 7 10 13 13 13 12 10 10 9 6 6 5 3 2 3 3 3 3 4 5 7 7 6
6 5 4 5 5 5 5 5 5 4 5 5 6 8 7 6 6 5 5 5 5 5 5 6 8 8 9 9 10 10 10 11 12 11 10 10 11 11 9 8 9 9 10 9 9 9 9 9 8 7 6 5 5 5 4 4 4 3 4 4 5 7 9 12 13 13 12 11 11 11 9 6 5 5 5 3 2 4 4 3 3 4 6 6 6
6 4 5 6 5 5 5 6 6 5 5 5 5 6 7 7 7 6 6 5 5 5 5 5 6 5 6 7 7 8 8 9 11 10 11 12 11 10 9 10 10 9 10 10 8 8 7 6 7 7 6 4 4 4 3 4 4 4 4 5 6 8 10 12 13 14 12 10 10 10 8 7 5 5 5 4 3 4 5 4 4 5 6 6 6
6 5 6 5 4 5 5 5 6 5 4 5 5 5 5 6 6 6 5 5 5 5 5 6 6 6 5 5 5 6 6 7 8 8 8 8 8 9 9 8 8 8 8 7 7 6 6 5 5 5 5 4 5 4 5 5 5 6 6 6 8 9 9 9 11 13 13 11 9 8 8 8 6 6 5 4 4 4 5 5 4 5 7 7 7
6 6 6 6 5 5 4 4 6 5 5 5 6 5 5 6 5 5 6 6 6 6 5 5 6 6 6 5 5 5 5 4 5 5 6 6 6 6 6 5 5 5 5 5 5 4 4 4 3 3 4 5 6 7 8 8 8 9 9 8 8 8 7 7 9 11 11 10 9 8 9 11 10 9 8 5 5 5 5 5 5 6 7 8 8
7 6 6 7 5 3 5 6 5 5 6 6 5 5 6 6 5 5 5 5 5 6 6 6 5 5 6 5 4 4 6 5 4 4 4 4 5 4 4 4 4 3 3 3 4 3 3 3 4 4 5 6 8 9 10 11 11 10 9 8 8 7 6 4 5 9 9 8 7 7 9 11 11 11 11 10 9 8 6 5 7 8 8 7 6
9 8 7 7 5 4 7 7 5 6 6 5 6 6 6 7 6 6 5 5 5 5 7 7 5 5 5 6 5 5 7 6 4 5 5 3 4 4 4 4 3 3 4 3 4 4 4 5 5 5 6 7 8 9 8 9 10 9 7 8 8 8 7 4 1 5 8 7 6 5 7 9 9 9 11 12 13 12 9 7 9 10 9 8 7
9 9 8 8 7 6 6 6 6 6 3 4 6 5 6 7 6 6 5 5 5 5 6 7 6 7 7 6 5 5 6 6 4 5 6 5 5 5 5 5 4 5 5 5 5 5 5 5 5 6 6 6 6 7 7 7 7 7 7 7 7 6 8 7 2 2 5 9 8 5 4 7 8 9 11 11 11 12 10 9 10 11 10 9 9
8 7 6 5 6 8 7 5 5 7 6 5 5 5 6 6 5 6 7 7 7 6 5 4 5 8 8 7 7 5 4 5 6 6 6 6 7 6 6 6 6 6 7 6 6 6 6 6 5 5 5 5 5 4 4 5 6 6 6 6 7 7 7 9 8 3 1 7 12 7 3 6 9 9 9 8 9 10 10 10 11 11 9 9 9
4 6 7 7 6 7 8 6 4 6 9 6 3 4 4 3 5 7 6 6 7 7 6 5 4 5 3 2 5 7 7 7 8 8 7 7 7 7 7 7 7 7 7 7 7 7 7 7 6 6 5 5 5 4 3 4 4 5 5 5 7 8 7 9 11 6 1 6 13 12 5 4 8 9 8 9 9 9 9 9 10 10 9 9 9
2 2 4 5 3 0 4 8 6 4 8 10 9 7 3 3 5 4 4 8 10 8 8 7 5 4 3 2 5 6 5 5 7 8 7 6 6 6 7 7 7 7 6 6 7 7 7 7 7 7 6 5 5 5 4 5 4 4 5 5 5 7 7 7 7 6 4 6 11 13 8 4 7 10 9 9 9 9 8 9 9 9 10 9 10
2 2 1 4 5 2 3 9 8 7 8 8 8 8 6 7 6 1 2 7 8 7 8 9 8 6 5 5 6 6 5 4 6 7 7 7 7 6 5 6 6 6 6 5 6 6 6 7 7 7 6 6 6 6 5 5 5 5 6 7 6 6 7 7 6 6 6 6 8 11 8 5 7 9 9 9 9 9 10 10 9 9 10 10 10
5 8 7 7 8 7 5 7 10 14 14 10 9 11 8 4 3 4 6 7 6 6 6 6 7 9 9 8 6 6 6 6 7 8 7 7 7 6 7 6 5 5 5 5 6 6 6 6 6 6 5 5 5 6 6 5 5 5 6 6 7 7 7 7 7 7 7 7 7 8 7 5 6 6 6 7 7 7 8 8 8 8 7 7 10
3 11 14 13 11 7 6 8 10 13 13 9 9 14 12 6 2 3 5 5 5 6 6 6 6 6 8 10 9 8 7 7 8 8 7 7 7 7 6 6 5 6 6 5 6 6 6 6 6 6 7 7 6 6 6 6 7 9 8 7 8 9 9 8 7 7 7 7 7 7 7 7 7 7 6 5 5 5 5 6 7 7 5 5 8
19 17 12 11 11 8 9 14 17 19 19 13 8 9 14 15 10 7 5 5 5 5 5 6 6 6 6 7 7 8 8 7 8 8 8 8 8 8 8 8 7 7 7 7 7 6 7 7 7 7 7 8 7 7 7 7 8 9 9 7 7 8 8 8 8 8 7 6 7 8 7 6 7 8 7 6 6 6 6 7 7 7 6 5 6
38 25 11 11 14 12 10 9 7 7 10 12 10 8 10 14 13 10 7 3 3 4 5 6 6 5 6 6 5 6 7 6 7 9 9 7 6 7 8 9 9 8 7 7 6 6 8 8 8 8 7 7 6 7 8 6 4 5 6 7 7 8 9 8 8 8 7 5 5 7 6 5 7 8 7 6 8 8 8 9 8 8 8 7 6
19 14 12 14 15 14 14 12 6 -0 -6 -5 2 9 15 20 21 19 17 13 8 4 3 7 11 9 6 5 4 4 5 6 7 9 7 5 6 8 8 7 7 8 7 7 6 6 7 7 7 6 7 7 7 7 7 5 4 5 6 7 7 7 8 8 8 9 10 7 5 7 8 7 7 8 7 8 9 8 9 10 10 9 9 8 7
Height
5924 5924 5925 5925 5925 5925 5926 5927 5927 5928 5929 5930 5931 5932 5933 5933 5934 5935 5936 5937 5937 5937 5939 5940 5942 5943 5943 5944 5944 5944 5945 5945 5945 5945 5946 5946 5947 5947 5948 5948 5949 5949 5950 5951 5951 5951 5952 5952 5952 5952 5952 5952 5952 5952 5952 5952 5951 5951 5950 5950 5949 5948 5947 5946 5945 5944 5943 5942 5941 5940 5938 5937 5935 5934 5932 5930 5928 5927 5925 5923 5921 5920 5918 5916 5913
5925 5925 5926 5925 5926 5926 5927 5928 5929 5930 5931 5932 5933 5933 5934 5935 5936 5937 5938 5938 5939 5940 5941 5942 5943 5944 5945 5945 5946 5946 5946 5946 5946 5946 5947 5947 5948 5948 5949 5949 5950 5950 5951 5952 5952 5952 5953 5953 5953 5954 5953 5953 5954 5953 5953 5953 5952 5952 5951 5950 5950 5949 5948 5947 5946 5945 5944 5943 5941 5940 5939 5937 5935 5934 5932 5930 5928 5926 5924 5922 5921 5919 5917 5915 5912
5925 5926 5926 5926 5927 5927 5928 5929 5930 5931 5932 5933 5934 5935 5936 5937 5938 5939 5939 5940 5941 5942 5943 5944 5945 5946 5946 5947 5947 5947 5947 5947 5947 5948 5948 5948 5949 5949 5950 5950 5951 5952 5952 5953 5953 5954 5954 5954 5955 5955 5955 5955 5955 5954 5954 5953 5953 5952 5952 5951 5950 5949 5949 5948 5946 5945 5944 5943 5942 5940 5939 5937 5935 5934 5932 5930 5928 5926 5925 5923 5921 5919 5917 5915 5912
5926 5927 5928 5928 5929 5929 5930 5931 5932 5933 5934 5935 5936 5937 5938 5939 5939 5940 5941 5942 5943 5944 5945 5946 5947 5947 5948 5948 5948 5948 5948 5948 5948 5949 5949 5949 5949 5950 5951 5951 5952 5953 5954 5954 5954 5955 5955 5955 5955 5955 5955 5955 5955 5955 5954 5954 5953 5953 5952 5952 5951 5950 5949 5948 5947 5946 5944 5943 5942 5940 5939 5937 5935 5934 5932 5930 5928 5926 5925 5923 5921 5919 5917 5915 5912
5929 5929 5930 5930 5931 5932 5932 5933 5934 5935 5936 5937 5938 5938 5939 5940 5941 5942 5943 5944 5945 5946 5947 5948 5948 5949 5949 5949 5949 5949 5949 5949 5949 5950 5950 5951 5951 5951 5952 5953 5953 5954 5955 5955 5956 5956 5956 5956 5956 5956 5956 5956 5956 5955 5955 5954 5954 5954 5953 5952 5952 5951 5950 5949 5947 5946 5945 5943 5942 5941 5939 5937 5936 5934 5932 5930 5928 5926 5924 5923 5921 5919 5917 5915 5912
5931 5932 5933 5933 5934 5934 5935 5936 5937 5938 5939 5939 5940 5940 5941 5942 5943 5943 5944 5946 5947 5948 5949 5950 5950 5950 5951 5950 5950 5950 5950 5950 5951 5951 5951 5952 5952 5953 5953 5954 5955 5955 5956 5957 5957 5957 5957 5957 5957 5957 5957 5956 5956 5956 5956 5955 5955 5954 5954 5953 5952 5951 5950 5949 5948 5947 5945 5944 5942 5941 5939 5937 5936 5934 5932 5930 5928 5926 5924 5923 5921 5919 5917 5915 5912
5934 5934 5935 5936 5936 5937 5938 5938 5939 5940 5941 5941 5942 5942 5943 5944 5945 5946 5946 5947 5948 5949 5950 5951 5951 5951 5951 5951 5951 5951 5952 5952 5952 5953 5953 5953 5954 5954 5955 5955 5956 5957 5957 5958 5958 5958 5958 5958 5957 5957 5957 5957 5957 5957 5956 5956 5955 5955 5954 5954 5953 5952 5951 5950 5949 5947 5946 5944 5943 5941 5939 5937 5936 5934 5932 5930 5928 5927 5925 5923 5921 5919 5917 5915 5912
5936 5937 5937 5938 5938 5939 5940 5940 5941 5942 5943 5943 5944 5945 5946 5946 5947 5948 5949 5949 5950 5951 5952 5952 5952 5952 5952 5952 5952 5952 5953 5953 5954 5954 5954 5954 5955 5955 5956 5957 5957 5958 5958 5959 5959 5959 5959 5959 5958 5958 5958 5957 5957 5957 5957 5956 5956 5955 5955 5954 5953 5952 5951 5950 5949 5948 5946 5945 5943 5941 5939 5937 5936 5934 5933 5931 5929 5927 5925 5923 5921 5919 5917 5915 5912
5938 5939 5939 5940 5941 5941 5942 5942 5943 5944 5945 5946 5947 5948 5949 5949 5950 5951 5951 5952 5952 5952 5953 5953 5953 5953 5953 5953 5953 5953 5954 5954 5955 5955 5956 5956 5956 5957 5957 5958 5958 5958 5959 5960 5960 5960 5960 5960 5959 5959 5958 5958 5957 5957 5957 5956 5956 5955 5955 5954 5954 5953 5952 5951 5950 5948 5947 5945 5943 5941 5939 5937 5936 5934 5933 5931 5929 5928 5926 5924 5921 5919 5917 5915 5913
5941 5941 5942 5943 5943 5944 5944 5945 5946 5946 5947 5948 5949 5950 5952 5952 5953 5953 5953 5953 5954 5954 5954 5954 5954 5954 5954 5954 5954 5954 5955 5955 5956 5956 5957 5957 5957 5958 5959 5959 5959 5959 5960 5960 5961 5961 5961 5961 5961 5960 5959 5959 5958 5958 5957 5957 5956 5956 5955 5955 5954 5953 5952 5951 5950 5948 5947 5945 5943 5942 5940 5938 5936 5934 5933 5931 5930 5928 5926 5924 5922 5919 5917 5915 5913
5943 5943 5944 5945 5946 5946 5947 5948 5949 5949 5950 5951 5951 5952 5953 5954 5954 5955 5955 5954 5955 5955 5954 5954 5955 5955 5955 5956 5955 5955 5955 5956 5956 5957 5957 5958 5958 5959 5960 5960 5960 5960 5960 5961 5962 5962 5962 5961 5961 5961 5960 5960 5959 5959 5958 5957 5957 5956 5956 5955 5954 5953 5952 5951 5950 5948 5947 5945 5943 5942 5940 5938 5936 5935 5933 5932 5930 5928 5926 5924 5922 5920 5918 5916 5914
5945 5945 5946 5947 5947 5948 5949 5950 5951 5951 5952 5953 5953 5953 5954 5954 5955 5955 5955 5955 5955 5956 5955 5956 5956 5956 5957 5957 5957 5956 5957 5957 5957 5958 5958 5958 5959 5960 5960 5960 5960 5961 5961 5961 5961 5961 5961 5961 5961 5960 5960 5961 5961 5961 5960 5959 5958 5958 5957 5956 5955 5954 5953 5951 5950 5948 5947 5945 5944 5942 5940 5939 5937 5936 5934 5932 5930 5929 5927 5925 5922 5920 5918 5916 5914
5946 5947 5947 5948 5948 5949 5950 5951 5951 5952 5953 5954 5954 5954 5955 5955 5955 5956 5956 5956 5956 5956 5956 5957 5957 5958 5958 5958 5958 5958 5958 5958 5958 5959 5959 5959 5960 5960 5961 5961 5961 5961 5962 5962 5961 5961 5961 5961 5961 5961 5961 5962 5963 5962 5961 5961 5959 5959 5958 5957 5956 5955 5954 5952 5950 5949 5947 5946 5944 5942 5941 5939 5938 5936 5935 5933 5931 5929 5927 5925 5923 5921 5918 5916 5914
5947 5948 5948 5949 5950 5950 5951 5952 5952 5952 5953 5954 5955 5955 5956 5956 5956 5956 5956 5956 5956 5957 5957 5958 5958 5959 5959 5959 5959 5959 5959 5959 5959 5960 5960 5960 5961 5961 5962 5962 5962 5962 5962 5962 5962 5962 5962 5962 5962 5962 5962 5962 5963 5963 5962 5961 5960 5959 5958 5957 5956 5955 5954 5953 5951 5949 5948 5946 5944 5943 5941 5940 5938 5937 5935 5933 5931 5929 5927 5926 5923 5921 5919 5916 5914
5948 5949 5950 5951 5951 5952 5953 5953 5953 5953 5953 5954 5954 5955 5956 5957 5957 5957 5956 5957 5957 5957 5958 5958 5959 5960 5960 5961 5961 5960 5960 5960 5960 5961 5961 5961 5962 5962 5962 5963 5963 5963 5963 5962 5962 5962 5962 5962 5962 5963 5963 5963 5963 5962 5961 5961 5959 5959 5958 5957 5956 5956 5955 5953 5952 5950 5948 5946 5944 5943 5942 5940 5939 5937 5936 5934 5931 5929 5928 5926 5924 5922 5920 5917 5915
5949 5949 5950 5951 5952 5952 5953 5953 5954 5954 5954 5954 5954 5955 5957 5957 5957 5956 5956 5957 5958 5958 5959 5959 5960 5960 5961 5961 5962 5962 5962 5962 5961 5962 5962 5962 5962 5963 5963 5963 5963 5963 5963 5963 5963 5962 5962 5963 5963 5963 5964 5964 5963 5962 5961 5961 5960 5959 5959 5958 5957 5956 5955 5954 5952 5951 5949 5947 5945 5943 5942 5941 5939 5938 5936 5934 5932 5930 5928 5927 5925 5923 5920 5918 5915
5949 5950 5951 5951 5952 5952 5953 5954 5955 5955 5955 5955 5955 5955 5956 5957 5957 5956 5957 5957 5959 5959 5960 5960 5960 5961 5961 5962 5962 5963 5962 5962 5962 5963 5962 5962 5963 5963 5963 5963 5963 5963 5963 5963 5963 5963 5963 5963 5963 5964 5964 5963 5963 5962 5962 5961 5960 5960 5959 5958 5957 5956 5955 5954 5953 5951 5949 5947 5945 5943 5942 5941 5939 5938 5936 5934 5932 5930 5929 5927 5925 5923 5921 5919 5916
5950 5951 5951 5951 5952 5953 5953 5954 5955 5955 5956 5956 5956 5956 5956 5957 5957 5957 5957 5958 5959 5960 5960 5961 5961 5961 5962 5962 5963 5963 5963 5963 5963 5963 5963 5963 5963 5963 5964 5964 5964 5964 5963 5963 5962 5962 5963 5963 5963 5963 5963 5963 5963 5963 5961 5960 5960 5959 5959 5959 5957 5955 5954 5954 5953 5951 5949 5947 5946 5944 5942 5941 5940 5938 5937 5935 5933 5931 5930 5928 5926 5924 5922 5919 5917
5951 5951 5952 5952 5953 5953 5954 5954 5954 5955 5956 5956 5957 5957 5957 5958 5958 5958 5958 5959 5959 5960 5960 5961 5961 5962 5962 5963 5963 5963 5964 5964 5964 5964 5963 5963 5963 5964 5964 5964 5964 5964 5963 5963 5963 5962 5963 5963 5963 5963 5962 5962 5962 5962 5961 5960 5959 5959 5959 5958 5956 5955 5954 5953 5952 5951 5949 5948 5946 5944 5942 5941 5940 5939 5937 5936 5934 5932 5930 5929 5927 5925 5923 5920 5918
5951 5952 5952 5953 5953 5954 5954 5954 5954 5955 5956 5956 5957 5957 5957 5958 5958 5958 5959 5960 5960 5960 5960 5961 5961 5962 5962 5963 5963 5964 5964 5964 5964 5964 5963 5964 5964 5964 5965 5965 5965 5964 5963 5964 5963 5962 5963 5963 5964 5963 5962 5962 5962 5961 5961 5960 5959 5958 5958 5957 5956 5954 5953 5953 5952 5951 5949 5948 5946 5944 5943 5941 5940 5939 5938 5936 5935 5933 5931 5929 5927 5926 5924 5921 5919
5952 5952 5952 5953 5954 5954 5954 5954 5955 5956 5956 5956 5957 5957 5958 5959 5959 5959 5960 5960 5961 5961 5961 5961 5961 5962 5962 5963 5963 5964 5964 5965 5965 5964 5964 5964 5964 5964 5965 5965 5966 5965 5964 5964 5964 5963 5963 5963 5963 5963 5963 5962 5962 5961 5960 5959 5959 5958 5957 5957 5955 5954 5953 5953 5952 5951 5949 5948 5946 5945 5943 5942 5941 5939 5938 5937 5935 5934 5932 5930 5928 5926 5924 5922 5920
5952 5953 5953 5953 5954 5955 5955 5955 5956 5956 5956 5957 5958 5958 5959 5959 5959 5960 5960 5961 5961 5961 5961 5961 5962 5962 5962 5963 5963 5963 5963 5964 5964 5964 5964 5964 5964 5964 5964 5965 5966 5965 5964 5964 5964 5963 5963 5963 5963 5964 5964 5964 5963 5961 5960 5959 5959 5958 5957 5956 5955 5955 5954 5953 5952 5951 5950 5948 5947 5945 5944 5942 5941 5940 5939 5937 5936 5934 5932 5931 5929 5927 5925 5923 5921
5953 5953 5953 5954 5954 5955 5956 5957 5957 5956 5957 5957 5958 5958 5958 5959 5959 5960 5961 5961 5961 5961 5961 5962 5962 5963 5963 5963 5963 5963 5962 5962 5963 5963 5963 5964 5964 5964 5964 5965 5965 5965 5964 5964 5964 5963 5963 5963 5964 5964 5963 5964 5963 5962 5961 5960 5959 5958 5958 5957 5956 5955 5954 5953 5952 5951 5950 5948 5947 5945 5944 5943 5942 5940 5939 5938 5937 5935 5933 5931 5929 5927 5926 5924 5922
5953 5953 5954 5954 5954 5955 5956 5957 5957 5957 5957 5958 5958 5958 5959 5959 5960 5960 5961 5961 5961 5961 5962 5962 5963 5963 5964 5964 5963 5963 5963 5963 5963 5963 5964 5964 5964 5964 5965 5966 5966 5965 5964 5964 5963 5963 5963 5963 5963 5963 5962 5962 5962 5961 5960 5960 5959 5959 5959 5958 5956 5955 5954 5953 5952 5951 5950 5949 5947 5946 5945 5943 5942 5941 5940 5939 5937 5936 5934 5932 5930 5928 5926 5925 5923
5954 5954 5954 5954 5954 5955 5956 5957 5958 5958 5959 5959 5959 5960 5960 5960 5960 5960 5960 5961 5961 5962 5962 5963 5963 5964 5964 5964 5964 5964 5964 5964 5964 5965 5965 5966 5966 5965 5965 5965 5966 5965 5964 5964 5963 5963 5963 5963 5962 5962 5962 5961 5961 5961 5960 5960 5960 5959 5959 5958 5956 5955 5954 5954 5953 5951 5950 5949 5948 5946 5945 5944 5943 5942 5941 5940 5938 5936 5935 5932 5930 5928 5926 5925 5924
5953 5954 5954 5954 5955 5955 5956 5957 5958 5959 5959 5960 5960 5960 5961 5961 5961 5961 5960 5961 5961 5962 5963 5963 5964 5964 5965 5965 5964 5964 5964 5964 5965 5965 5965 5965 5965 5965 5964 5964 5964 5964 5963 5963 5962 5962 5963 5963 5962 5961 5961 5961 5960 5960 5960 5960 5959 5959 5959 5958 5957 5956 5955 5954 5953 5951 5950 5949 5948 5947 5946 5945 5944 5943 5941 5940 5938 5937 5935 5933 5931 5929 5927 5925 5924
5953 5954 5954 5955 5955 5955 5956 5957 5957 5958 5959 5959 5960 5960 5960 5961 5961 5961 5961 5961 5962 5962 5963 5964 5964 5964 5964 5965 5965 5965 5965 5965 5965 5965 5964 5964 5964 5964 5964 5964 5964 5963 5963 5962 5962 5962 5963 5963 5963 5962 5961 5961 5960 5960 5959 5959 5959 5959 5958 5958 5957 5956 5955 5954 5952 5951 5950 5949 5948 5947 5946 5945 5944 5943 5942 5941 5939 5937 5935 5933 5931 5929 5927 5925 5924
5953 5954 5954 5955 5955 5955 5956 5956 5957 5958 5958 5958 5959 5959 5960 5960 5960 5960 5961 5961 5962 5963 5963 5964 5964 5964 5965 5965 5965 5965 5965 5965 5966 5965 5965 5965 5965 5965 5965 5965 5965 5964 5964 5964 5964 5964 5963 5963 5963 5963 5962 5962 5961 5960 5959 5959 5958 5958 5958 5957 5957 5957 5956 5954 5952 5951 5950 5949 5948 5947 5946 5945 5944 5943 5942 5941 5939 5937 5936 5934 5932 5930 5928 5926 5925
5953 5954 5954 5955 5955 5956 5956 5956 5957 5957 5958 5958 5958 5959 5959 5960 5960 5960 5961 5961 5962 5963 5963 5964 5964 5964 5964 5965 5965 5965 5965 5965 5966 5965 5965 5965 5965 5965 5966 5966 5965 5966 5966 5966 5965 5964 5963 5963 5963 5963 5962 5961 5961 5960 5960 5959 5958 5958 5958 5958 5958 5957 5956 5953 5952 5951 5950 5949 5948 5947 5946 5945 5945 5944 5943 5941 5940 5938 5936 5934 5932 5931 5929 5927 5925
5953 5954 5954 5954 5955 5955 5956 5956 5957 5957 5958 5958 5958 5959 5959 5960 5960 5961 5961 5962 5962 5962 5963 5963 5964 5964 5964 5964 5964 5964 5964 5964 5965 5965 5964 5964 5965 5965 5966 5966 5966 5966 5966 5965 5964 5964 5963 5962 5962 5962 5962 5961 5961 5960 5960 5959 5958 5958 5958 5958 5958 5957 5955 5953 5952 5951 5950 5949 5948 5947 5946 5946 5945 5944 5943 5941 5940 5938 5936 5935 5933 5931 5930 5928 5926
5952 5953 5954 5954 5954 5955 5956 5956 5957 5957 5958 5958 5958 5959 5959 5960 5960 5961 5961 5962 5962 5962 5962 5963 5963 5963 5964 5964 5963 5963 5963 5964 5964 5964 5964 5964 5964 5965 5966 5966 5965 5965 5964 5964 5964 5964 5963 5962 5961 5962 5961 5961 5961 5960 5960 5959 5959 5958 5958 5958 5957 5956 5954 5953 5952 5951 5950 5949 5948 5947 5947 5946 5945 5944 5943 5941 5940 5938 5937 5935 5933 5932 5930 5929 5927
5952 5952 5953 5953 5954 5955 5955 5956 5956 5957 5958 5958 5958 5958 5959 5959 5960 5960 5961 5961 5962 5962 5962 5962 5962 5963 5963 5963 5963 5963 5963 5963 5964 5964 5964 5964 5964 5964 5964 5964 5964 5963 5963 5963 5963 5963 5963 5962 5961 5961 5961 5961 5960 5960 5959 5959 5959 5958 5958 5957 5956 5955 5954 5953 5951 5950 5950 5949 5948 5947 5947 5946 5945 5944 5943 5941 5940 5938 5936 5935 5934 5932 5931 5929 5928
5951 5951 5952 5953 5953 5954 5955 5956 5956 5956 5957 5958 5958 5959 5959 5959 5959 5960 5960 5961 5961 5961 5962 5962 5962 5962 5962 5962 5963 5963 5963 5963 5963 5963 5963 5963 5963 5963 5963 5963 5964 5963 5963 5963 5963 5962 5962 5962 5961 5960 5960 5960 5960 5960 5959 5959 5958 5958 5957 5957 5956 5955 5953 5953 5951 5950 5949 5949 5948 5947 5947 5946 5945 5944 5943 5941 5940 5938 5937 5935 5934 5932 5931 5930 5928
5950 5951 5951 5952 5953 5953 5954 5955 5955 5956 5957 5957 5958 5959 5959 5959 5959 5959 5960 5960 5961 5961 5961 5961 5961 5962 5962 5962 5962 5962 5962 5962 5962 5962 5963 5962 5962 5962 5962 5963 5963 5963 5963 5962 5962 5962 5961 5961 5961 5960 5960 5960 5960 5959 5959 5958 5958 5957 5956 5956 5955 5954 5953 5952 5951 5950 5949 5948 5947 5947 5946 5945 5945 5944 5943 5941 5940 5938 5937 5935 5934 5932 5931 5930 5929
5948 5950 5950 5951 5952 5952 5953 5953 5954 5955 5956 5956 5957 5958 5958 5958 5958 5958 5959 5960 5960 5960 5960 5961 5961 5961 5961 5961 5961 5961 5961 5961 5962 5962 5962 5962 5962 5962 5962 5962 5962 5962 5962 5962 5962 5961 5961 5961 5960 5960 5960 5959 5959 5959 5958 5958 5957 5956 5955 5954 5953 5953 5952 5951 5950 5949 5948 5947 5947 5946 5945 5945 5944 5943 5942 5941 5940 5938 5937 5935 5934 5932 5931 5930 5929
5946 5948 5949 5949 5950 5951 5951 5952 5952 5953 5954 5955 5955 5956 5957 5957 5958 5958 5958 5959 5959 5959 5959 5959 5960 5960 5960 5960 5960 5960 5960 5960 5961 5961 5961 5961 5962 5962 5962 5962 5962 5962 5962 5961 5961 5961 5961 5960 5960 5959 5959 5959 5958 5958 5957 5957 5956 5955 5954 5953 5952 5951 5951 5950 5950 5949 5948 5947 5946 5945 5945 5944 5943 5942 5941 5940 5939 5938 5937 5936 5934 5932 5931 5930 5928
5944 5946 5947 5947 5948 5949 5950 5950 5951 5951 5952 5953 5954 5954 5955 5956 5957 5957 5957 5958 5958 5958 5958 5959 5959 5959 5959 5959 5959 5959 5960 5960 5960 5960 5960 5960 5960 5961 5961 5961 5961 5961 5961 5961 5961 5960 5960 5959 5959 5959 5959 5958 5958 5957 5956 5955 5955 5954 5953 5952 5951 5951 5950 5950 5949 5949 5948 5946 5945 5944 5944 5943 5942 5941 5940 5940 5939 5938 5937 5936 5934 5932 5931 5929 5928
5942 5943 5945 5945 5946 5947 5948 5949 5949 5950 5950 5951 5952 5953 5953 5954 5955 5956 5956 5957 5957 5957 5957 5957 5957 5957 5957 5957 5958 5958 5958 5959 5959 5959 5959 5959 5959 5959 5959 5959 5959 5959 5960 5960 5960 5959 5959 5959 5958 5958 5958 5957 5956 5956 5955 5954 5954 5953 5952 5951 5951 5950 5949 5948 5948 5948 5947 5946 5945 5944 5943 5942 5942 5941 5940 5939 5938 5937 5936 5935 5934 5932 5931 5929 5928
5940 5941 5942 5943 5943 5944 5945 5947 5947 5948 5949 5949 5950 5951 5951 5952 5953 5954 5954 5955 5955 5956 5956 5956 5956 5956 5956 5956 5956 5957 5957 5957 5958 5958 5958 5958 5957 5957 5957 5958 5958 5958 5958 5958 5958 5958 5958 5957 5957 5957 5956 5955 5955 5954 5954 5953 5953 5952 5951 5950 5949 5949 5948 5947 5947 5947 5946 5945 5944 5943 5942 5941 5941 5940 5939 5938 5938 5937 5936 5934 5933 5932 5931 5929 5928
5938 5938 5939 5940 5940 5942 5943 5944 5945 5946 5946 5947 5948 5949 5949 5950 5951 5951 5952 5953 5954 5954 5954 5954 5954 5954 5955 5955 5955 5956 5956 5956 5957 5957 5957 5957 5957 5956 5956 5956 5957 5956 5956 5957 5956 5956 5956 5956 5955 5955 5954 5953 5953 5953 5952 5952 5952 5951 5950 5949 5949 5948 5947 5946 5945 5945 5945 5944 5943 5942 5941 5940 5940 5939 5938 5938 5937 5936 5935 5934 5933 5931 5930 5929 5927
5935 5936 5937 5937 5938 5940 5941 5941 5942 5943 5944 5945 5946 5946 5947 5948 5948 5949 5950 5950 5952 5952 5952 5952 5953 5953 5953 5953 5954 5954 5955 5955 5956 5956 5956 5956 5956 5955 5955 5955 5955 5955 5955 5955 5955 5954 5954 5953 5953 5953 5952 5952 5951 5951 5951 5950 5950 5949 5949 5948 5948 5947 5947 5945 5943 5943 5943 5943 5943 5941 5939 5939 5939 5938 5937 5937 5936 5935 5934 5933 5931 5931 5929 5928 5927
5932 5933 5934 5935 5936 5937 5938 5939 5940 5941 5941 5942 5943 5944 5945 5946 5946 5947 5947 5947 5948 5950 5950 5950 5951 5951 5951 5951 5951 5952 5953 5953 5953 5954 5954 5954 5954 5954 5954 5954 5953 5953 5953 5953 5953 5952 5952 5951 5951 5950 5950 5949 5949 5949 5949 5948 5948 5948 5947 5947 5947 5946 5946 5945 5943 5941 5941 5942 5942 5940 5938 5938 5938 5937 5936 5935 5934 5933 5932 5931 5930 5929 5928 5927 5926
5929 5930 5932 5934 5934 5934 5935 5936 5936 5937 5938 5939 5940 5941 5942 5943 5944 5944 5945 5945 5946 5947 5947 5947 5948 5948 5949 5949 5949 5950 5950 5950 5951 5951 5951 5952 5952 5952 5952 5952 5951 5951 5951 5951 5950 5950 5950 5949 5949 5948 5948 5947 5947 5947 5946 5947 5947 5946 5946 5946 5946 5945 5945 5945 5943 5940 5939 5940 5941 5939 5936 5936 5937 5936 5934 5933 5933 5931 5931 5930 5929 5928 5927 5926 5925
5927 5927 5929 5931 5931 5931 5932 5933 5932 5933 5934 5935 5937 5937 5938 5939 5940 5941 5942 5943 5943 5944 5945 5945 5945 5945 5945 5946 5946 5947 5947 5947 5948 5948 5948 5949 5949 5949 5949 5949 5949 5949 5949 5949 5948 5948 5948 5948 5947 5946 5946 5946 5945 5945 5945 5945 5945 5945 5945 5944 5944 5944 5943 5943 5943 5940 5938 5938 5940 5939 5935 5934 5935 5934 5933 5932 5931 5930 5928 5928 5927 5926 5925 5924 5923
5925 5925 5926 5927 5927 5928 5929 5929 5929 5929 5931 5931 5932 5933 5933 5934 5936 5937 5939 5940 5941 5942 5942 5942 5942 5942 5942 5942 5943 5943 5944 5944 5945 5945 5945 5945 5946 5946 5946 5946 5947 5947 5946 5946 5946 5946 5946 5947 5946 5945 5945 5945 5944 5943 5943 5944 5943 5943 5943 5942 5942 5942 5942 5941 5940 5939 5937 5936 5937 5938 5935 5933 5933 5933 5932 5930 5929 5928 5926 5925 5925 5924 5923 5922 5922
5922 5922 5923 5924 5924 5924 5924 5925 5924 5925 5926 5927 5928 5929 5930 5931 5931 5933 5935 5936 5937 5938 5939 5939 5939 5939 5939 5939 5940 5940 5940 5941 5942 5942 5942 5942 5942 5942 5943 5943 5944 5944 5944 5944 5944 5944 5945 5945 5945 5944 5942 5942 5942 5941 5941 5941 5941 5941 5941 5941 5940 5939 5939 5938 5937 5936 5935 5934 5934 5935 5934 5932 5931 5931 5930 5929 5928 5926 5925 5923 5922 5921 5921 5920 5919
5918 5918 5919 5920 5920 5920 5920 5920 5920 5921 5923 5923 5924 5926 5928 5928 5929 5930 5931 5932 5932 5933 5934 5935 5935 5935 5936 5937 5938 5938 5938 5939 5940 5939 5939 5939 5939 5940 5940 5940 5940 5940 5940 5940 5941 5941 5942 5942 5942 5941 5940 5939 5939 5939 5939 5938 5938 5938 5938 5938 5937 5937 5937 5936 5934 5933 5932 5931 5930 5932 5932 5929 5928 5928 5928 5926 5925 5924 5922 5921 5920 5919 5918 5917 5916
5913 5914 5915 5915 5916 5916 5916 5916 5917 5919 5919 5919 5920 5921 5923 5924 5925 5924 5925 5927 5927 5928 5929 5930 5931 5932 5933 5935 5935 5935 5935 5936 5936 5936 5935 5936 5936 5937 5937 5937 5937 5937 5937 5937 5937 5938 5938 5938 5938 5938 5937 5936 5936 5936 5936 5935 5935 5935 5935 5935 5934 5934 5934 5933 5932 5930 5929 5927 5926 5927 5928 5927 5926 5925 5925 5923 5922 5921 5920 5919 5918 5917 5916 5914 5913
5908 5910 5911 5912 5912 5911 5911 5912 5914 5915 5915 5914 5916 5917 5918 5919 5919 5918 5919 5921 5922 5924 5925 5926 5927 5928 5930 5930 5931 5931 5931 5932 5932 5932 5933 5933 5933 5934 5934 5934 5934 5934 5933 5933 5933 5934 5934 5935 5935 5935 5935 5934 5934 5933 5933 5932 5932 5932 5932 5932 5931 5931 5931 5930 5929 5928 5926 5924 5923 5923 5924 5924 5922 5922 5921 5920 5919 5917 5917 5916 5915 5914 5913 5912 5911
5904 5906 5907 5908 5908 5907 5907 5909 5910 5910 5910 5910 5912 5913 5914 5915 5915 5914 5915 5916 5918 5919 5921 5922 5924 5925 5925 5926 5926 5926 5927 5928 5928 5929 5929 5929 5929 5930 5931 5931 5931 5930 5930 5929 5929 5929 5930 5931 5931 5931 5931 5931 5931 5931 5930 5929 5929 5928 5929 5929 5929 5928 5928 5927 5927 5926 5924 5921 5919 5920 5920 5920 5919 5917 5917 5918 5916 5914 5913 5913 5912 5911 5910 5909 5908
5901 5902 5904 5905 5904 5904 5904 5905 5905 5905 5906 5906 5907 5908 5909 5910 5910 5911 5912 5913 5914 5915 5916 5917 5919 5920 5921 5922 5922 5922 5923 5923 5924 5925 5925 5926 5926 5926 5927 5928 5928 5927 5927 5926 5925 5926 5926 5926 5927 5927 5927 5927 5927 5927 5926 5926 5925 5924 5924 5925 5925 5925 5925 5925 5924 5924 5923 5919 5917 5917 5917 5916 5915 5913 5913 5914 5915 5912 5909 5909 5908 5907 5906 5906 5906